SCP
0 0 0 0 0 -0 -0 -0 -0 -0 -0 0 0 0 0 0 0 0 0 0 0 0 0 0 0 0 0 0 0 0 0 0 0 0 0 0 0 0 0 0 0 0 0 0
0 0 0 -0 -0 -0 -0 -0 -0 -0 0 0 0 0 0 0 0 0 0 0 0 0 0 0 0 0 0 0 0 0 0 0 0 0 0 0 0 0 0 0 0 0 0 0
0 0 0 0 0 0 0 0 -0 0 0 0 0 0 0 0 0 0 0 0 0 0 0 0 0 0 0 0 0 0 0 0 0 0 0 0 0 0 0 0 0 0 0 0
0 0 0 0 0 0 0 0 0 0 0 0 0 0 0 0 0 0 0 0 0 0 0 0 0 0 0 0 0 0 0 0 0 0 0 0 0 0 0 0 0 0 0 0
0 0 0 0 0 0 0 0 0 0 0 0 0 0 0 0 0 0 0 0 0 0 0 0 0 0 0 0 0 0 0 0 0 0 0 0 0 0 0 0 0 0 0 0
0 0 0 0 0 0 0 0 0 0 0 0 0 0 0 0 0 0 0 0 0 0 0 0 0 0 0 0 0 0 0 0 0 0 0 0 0 0 0 0 0 0 0 0
0 0 0 0 0 0 0 0 0 0 0 0 0 0 0 0 0 0 0 0 0 0 0 0 0 0 0 0 0 0 0 0 0 0 0 0 0 0 0 0 0 0 0 0
0 0 0 0 0 0 0 0 0 0 0 0 0 0 0 0 0 0 0 0 0 0 0 0 0 0 0 0 0 0 0 0 0 0 0 0 0 0 0 0 0 0 0 0
0 0 0 0 0 0 0 0 0 0 0 0 0 0 0 0 0 0 0 0 0 0 0 0 0 0 0 0 0 0 0 0 0 0 0 0 0 0 0 0 0 0 0 0
0 0 0 0 0 0 0 0 0 0 0 0 0 0 0 0 0 0 0 0 0 0 0 0 0 0 0 0 0 0 0 0 0 0 0 0 0 0 0 0 0 0 0 0
0 0 0 0 0 0 0 0 0 0 0 0 0 0 0 0 0 0 0 0 0 0 0 0 0 0 0 0 0 0 0 0 0 0 0 0 0 0 0 0 0 0 0 0
0 0 0 0 0 0 0 0 0 0 0 0 0 0 0 0 0 0 0 0 0 0 0 0 0 0 0 0 0 0 0 0 0 0 0 0 0 0 0 0 0 0 0 0
0 0 0 0 0 0 0 0 0 0 0 0 0 0 0 0 0 0 0 0 0 0 0 0 0 0 0 0 0 0 0 0 0 0 0 0 0 0 0 0 0 0 0 0
0 0 0 0 0 0 0 0 0 0 0 0 0 0 0 0 0 0 0 0 0 0 0 0 0 0 0 0 0 0 0 0 0 0 0 0 0 0 0 0 0 0 0 0
0 0 0 0 0 0 0 0 0 0 0 0 0 0 0 0 0 0 0 0 0 0 0 0 0 0 0 0 0 0 0 0 0 0 0 0 0 0 0 0 0 0 0 0
0 0 0 0 0 0 0 0 0 0 0 0 0 0 0 0 0 0 0 0 0 0 0 0 0 0 0 0 0 0 0 0 0 0 0 0 0 0 0 0 0 0 0 0
0 0 0 0 0 0 0 0 0 0 0 0 0 0 0 0 0 0 0 0 0 0 0 0 0 0 0 0 0 0 0 0 0 0 0 0 0 0 0 0 0 0 0 0
0 0 0 0 0 0 0 0 0 0 0 0 0 0 0 0 0 0 0 0 0 0 0 0 0 0 0 0 0 0 0 0 0 0 0 0 0 0 0 0 0 0 0 0
0 0 0 0 0 0 0 0 0 0 0 0 0 0 0 0 0 0 0 0 0 0 0 0 0 0 0 0 0 0 0 0 0 0 0 0 0 0 0 0 0 0 0 0
0 0 0 0 0 0 0 0 0 0 0 0 0 0 0 0 0 0 0 0 0 0 0 0 0 0 0 0 0 0 0 0 0 0 0 0 0 0 0 0 0 0 0 0
0 0 0 0 0 0 0 0 0 0 0 0 0 0 0 0 0 0 0 0 0 0 0 0 0 0 0 0 0 0 0 0 0 0 0 0 0 0 0 0 0 0 0 0
0 0 0 0 0 0 0 0 0 0 0 0 0 0 0 0 0 0 0 0 0 0 0 0 0 0 0 0 0 0 0 0 0 0 0 0 0 0 0 0 0 0 0 0
0 0 0 0 0 0 0 0 0 0 0 0 0 0 0 0 0 0 0 0 0 0 0 0 0 0 0 0 0 0 0 0 0 0 0 0 0 0 0 0 0 0 0 0
0 0 0 0 0 0 0 0 0 0 0 0 0 0 0 0 0 0 0 0 0 0 0 0 0 0 0 0 0 0 0 0 0 0 0 0 0 0 0 0 0 0 0 0
0 0 0 0 0 0 0 0 0 0 0 0 0 0 0 0 0 0 0 0 0 0 0 0 0 0 0 0 0 0 0 0 0 0 0 0 0 0 0 0 0 0 0 0
0 0 0 0 0 0 0 0 0 0 0 0 0 0 0 0 0 0 0 0 0 0 0 0 0 0 0 0 0 0 0 0 0 0 0 0 0 0 0 0 0 0 0 0
0 0 0 0 0 0 0 0 0 0 0 0 0 0 0 0 0 0 0 0 0 0 0 0 0 0 0 0 0 0 0 0 0 0 0 0 0 0 0 0 0 0 0 0
Wind_Speed
8 6 7 9 9 8 10 11 11 9 8 6 3 4 5 7 8 9 9 10 10 9 7 7 6 5 5 4 4 5 6 7 7 7 7 8 9 9 9 10 11 10 11 11
10 9 9 11 11 11 10 10 10 10 8 2 1 3 5 7 9 9 9 10 9 9 7 7 6 6 5 5 4 5 6 7 7 8 8 8 9 9 9 10 10 10 11 11
12 9 9 11 8 8 7 6 7 7 3 3 4 5 7 8 8 8 8 9 9 8 7 6 6 5 5 5 5 5 6 7 8 8 8 9 9 10 10 10 10 10 11 11
10 9 11 4 0 4 6 6 6 6 3 2 3 4 5 6 8 8 8 8 8 8 7 7 6 6 5 5 5 6 7 7 8 8 9 9 9 10 10 9 10 10 11 11
9 11 10 6 5 5 6 6 5 5 4 4 3 5 7 9 9 8 8 8 7 7 7 6 6 5 5 6 6 6 7 7 8 8 9 9 10 10 10 10 10 10 10 11
8 9 9 2 4 3 5 7 2 5 5 6 7 7 3 7 9 9 8 8 7 7 7 6 6 5 6 6 7 7 7 7 7 8 9 10 10 10 10 9 10 11 10 10
9 9 7 4 4 6 6 4 3 3 5 7 9 7 1 6 8 9 9 10 9 8 8 7 6 6 7 7 7 7 7 7 8 8 9 10 10 9 10 10 10 11 11 11
6 8 2 7 2 3 7 8 5 5 6 7 9 8 5 6 8 9 10 11 11 9 8 7 7 7 7 8 7 6 7 8 9 9 9 8 9 10 10 10 11 11 10 10
3 3 6 5 5 7 9 9 9 9 9 7 9 9 9 9 8 9 10 10 10 10 9 8 8 8 8 7 6 7 8 9 9 9 9 9 9 10 10 9 9 9 9 9
4 1 4 7 8 10 10 11 11 10 9 7 8 9 8 8 8 8 9 9 9 9 9 8 8 8 8 7 7 7 9 9 9 9 9 9 7 8 8 8 9 9 9 9
7 4 2 6 12 13 12 11 10 9 7 6 6 6 6 6 6 6 6 6 7 7 8 8 7 8 8 7 7 8 9 9 9 9 9 8 8 8 9 9 8 9 10 10
4 8 7 8 11 12 11 11 11 10 9 8 6 6 5 4 3 3 4 5 6 6 7 6 6 7 7 7 8 9 9 9 8 8 7 8 8 8 8 10 9 12 14 13
4 6 6 6 9 11 11 12 12 12 12 10 9 8 6 4 3 2 2 4 5 5 5 5 5 7 7 8 8 9 10 9 8 8 8 8 8 9 9 8 12 15 16 15
4 4 7 9 9 11 12 12 12 13 13 12 11 9 8 6 4 3 2 2 2 2 3 4 5 7 7 8 9 10 11 9 9 9 9 9 9 9 9 9 9 8 8 13
9 9 9 9 10 12 12 13 13 14 14 13 12 11 10 8 6 5 4 2 1 2 3 5 6 7 7 9 10 11 10 9 8 8 8 9 9 9 9 10 9 8 8 5
9 10 10 11 12 13 14 14 14 13 13 13 12 11 10 9 7 6 5 4 4 5 5 6 7 7 7 9 10 10 10 11 10 9 9 9 9 9 9 8 8 8 7 7
9 10 11 11 12 12 12 12 12 12 12 12 12 11 10 10 9 9 8 7 7 7 8 8 8 8 8 9 11 10 10 9 11 10 10 9 8 9 8 8 8 7 7 6
9 8 8 8 9 10 11 11 11 11 10 11 10 10 10 10 10 10 10 10 10 10 9 9 9 10 10 10 9 9 9 9 9 9 8 8 8 8 8 8 8 8 7 5
7 7 7 8 9 9 9 10 10 10 10 10 10 10 10 10 11 12 12 12 12 11 11 12 11 13 13 11 9 8 10 10 10 9 8 7 8 9 8 8 8 7 6 6
5 6 7 8 8 9 9 9 10 9 9 9 10 10 10 11 11 12 12 12 9 10 13 14 15 13 12 9 7 9 10 11 11 9 8 8 8 7 7 8 7 6 5 5
6 7 8 9 9 9 9 10 10 10 9 10 10 10 11 12 12 12 12 12 11 12 14 14 12 11 10 8 7 10 10 10 10 9 8 8 7 7 7 6 6 5 5 5
7 9 10 10 10 10 10 10 10 11 10 10 11 12 12 12 13 12 12 10 11 11 12 13 12 10 10 10 10 10 10 10 9 8 7 6 6 6 5 6 5 5 4 4
9 10 11 11 11 12 12 12 12 11 11 12 12 12 13 12 11 12 12 10 11 13 13 13 11 10 11 11 10 10 10 9 8 7 6 5 5 5 5 5 4 4 4 4
10 11 11 12 12 13 13 13 12 11 12 13 13 13 12 11 10 10 11 11 11 12 13 11 9 10 12 10 9 8 7 7 6 6 5 5 4 4 4 3 4 3 3 4
11 12 12 13 13 12 12 13 13 13 13 11 13 13 12 10 11 11 12 14 13 12 13 11 9 9 10 9 7 6 6 5 4 4 3 3 3 2 2 2 3 3 3 3
11 11 11 12 11 11 12 11 11 11 11 11 11 11 11 11 12 11 10 13 16 13 12 10 10 8 8 7 6 6 5 2 2 3 2 2 2 2 1 2 4 3 3 3
13 12 10 11 11 11 10 11 11 11 11 12 12 12 13 13 12 12 13 12 12 11 11 10 9 8 7 6 5 4 3 2 2 2 1 1 1 1 1 1 2 3 3 3
Wind_Direction
275 279 275 280 278 258 254 273 284 291 292 296 260 220 202 190 183 184 184 188 192 196 194 198 206 214 230 249 256 269 278 283 286 289 288 286 287 288 289 289 288 288 287 284
266 261 262 270 272 270 261 261 267 275 282 324 124 176 182 187 189 196 198 198 197 199 200 205 212 221 230 247 258 265 275 284 290 291 288 288 290 290 290 291 291 289 286 286
269 268 265 262 261 263 256 247 260 274 312 122 183 194 198 197 202 211 209 203 201 202 204 207 212 217 232 245 259 266 274 283 288 289 289 292 294 296 297 296 293 291 289 287
264 261 256 275 65 268 263 257 251 271 277 209 218 205 203 205 211 217 214 207 202 202 200 202 203 209 225 248 255 266 275 283 288 289 290 293 294 297 298 296 296 293 291 291
257 252 252 247 198 216 241 262 244 247 238 195 175 211 216 204 212 219 215 207 202 202 199 198 205 212 227 249 260 269 277 285 290 293 292 293 295 299 300 297 295 294 292 292
243 260 262 274 113 165 243 255 202 210 221 195 190 247 251 170 193 207 204 195 193 192 195 198 209 213 234 253 262 272 282 288 291 290 288 290 295 297 297 295 291 294 296 293
245 253 259 55 114 186 240 354 37 231 232 211 218 257 22 159 185 198 198 194 192 195 201 205 204 211 236 257 267 278 286 287 285 286 285 284 289 290 291 291 294 293 293 290
241 250 265 67 167 263 358 353 333 303 276 249 244 245 222 202 198 200 201 200 196 199 205 204 203 213 237 254 268 277 280 281 283 285 286 289 288 288 289 290 289 287 289 290
289 344 50 21 352 351 341 325 321 313 298 278 263 254 240 228 218 212 209 205 202 204 208 206 206 216 240 255 264 269 273 277 281 284 283 282 284 286 285 284 286 296 299 299
267 250 37 28 20 6 352 335 325 316 306 288 269 265 256 243 230 222 215 208 203 207 212 213 212 219 234 248 254 260 267 273 276 278 279 280 280 282 288 294 295 299 302 302
262 314 331 40 17 2 354 352 350 346 339 323 300 287 273 257 244 232 218 209 204 210 217 222 220 226 235 240 244 254 263 268 273 275 278 284 279 280 286 289 295 293 299 302
347 20 349 8 6 3 7 10 8 4 5 6 352 333 319 300 280 251 221 200 200 209 221 229 230 237 242 240 240 250 260 264 270 274 280 281 284 283 253 247 253 245 250 264
352 17 33 29 23 18 22 25 26 26 21 17 15 5 355 347 337 308 252 215 204 206 218 231 244 249 248 241 239 244 256 266 274 278 279 279 283 287 292 273 238 237 240 243
64 83 63 41 33 26 25 29 33 33 30 25 21 16 12 9 8 358 332 303 261 232 233 237 251 262 264 251 241 245 253 257 256 265 270 276 280 282 284 290 295 294 250 229
71 73 71 56 44 37 30 28 30 28 24 22 21 18 15 10 7 3 357 349 310 263 256 260 260 264 263 255 245 245 251 255 255 264 270 272 275 276 278 284 289 298 305 278
87 75 63 51 40 30 25 23 21 17 14 11 11 10 7 5 5 4 0 345 314 295 286 277 272 273 272 261 251 248 247 246 250 263 267 269 271 275 279 284 288 295 299 303
76 58 44 34 27 20 16 13 10 5 3 2 0 359 357 357 356 354 345 335 317 303 295 287 282 285 281 266 255 255 258 246 215 241 257 264 272 278 282 286 289 294 298 309
68 54 37 22 10 4 1 360 358 356 352 348 348 352 352 350 348 344 337 331 322 312 305 303 305 301 287 273 261 260 261 263 257 251 259 266 273 278 280 280 284 290 296 295
56 39 23 12 2 354 348 346 346 345 343 345 345 347 346 344 342 337 334 327 320 318 330 328 322 301 291 283 271 259 258 260 259 255 256 255 256 263 270 276 281 289 301 307
27 13 1 353 350 344 338 337 334 332 334 336 335 336 337 338 336 333 329 319 326 335 332 328 316 301 293 290 280 269 261 258 259 259 257 259 262 267 270 274 281 290 299 305
349 343 338 335 334 332 329 328 324 321 322 322 323 325 326 327 326 326 323 320 329 337 329 315 304 305 305 317 291 276 270 264 261 260 260 260 264 269 273 280 288 293 297 303
328 327 326 324 322 320 320 315 310 308 309 309 312 316 317 317 319 318 314 315 321 337 326 317 315 329 328 311 286 276 271 267 265 263 262 263 268 273 275 279 283 291 296 307
316 315 313 312 311 310 306 302 301 302 302 304 305 306 308 310 310 309 309 322 323 331 319 315 326 321 307 291 282 277 274 271 267 264 261 258 262 270 277 280 284 292 302 316
308 307 305 303 302 298 296 298 300 299 296 294 292 295 298 298 299 303 311 316 317 317 311 316 307 298 291 285 283 282 279 272 263 258 261 258 257 267 277 286 291 293 299 310
302 302 300 299 295 294 296 294 291 287 286 288 292 295 295 298 303 307 308 310 313 308 311 315 306 297 291 291 290 286 280 283 288 287 280 277 278 282 289 302 310 310 310 318
297 294 296 294 292 290 288 289 290 293 295 296 297 298 300 301 301 301 301 306 312 313 310 313 314 306 303 307 308 301 294 286 267 265 280 291 302 310 315 325 320 321 329 339
288 286 283 282 284 288 293 294 294 294 295 296 300 303 304 303 301 302 305 306 309 312 315 317 316 320 319 316 312 303 302 308 307 313 320 330 336 329 329 335 333 339 340 355